SQ3RAX-13 Weather Reports


time (UTC)temp
C
wind
direction
speed
KPH
gust
KPH
rain 1hr
cm
rain 24hr
cm
rain mn
cm
humidity
%
barometer
mb
20260507021607 8 13 14.5 27.4 0.00 0.00 0.00 90 1008.0
20260507020607 8 13 14.5 27.4 0.00 0.00 0.00 90 1008.0
20260507015607 8 13 14.5 27.4 0.00 0.00 0.00 91 1009.0
20260507014607 8 13 14.5 27.4 0.00 0.00 0.00 91 1009.0
20260507013607 8 13 14.5 27.4 0.00 0.00 0.00 91 1009.0
20260507012607 8 13 12.9 25.7 0.00 0.00 0.00 90 1008.0
20260507011607 9 13 12.9 25.7 0.00 0.00 0.00 93 1009.0
20260507010607 9 13 12.9 25.7 0.00 0.00 0.00 93 1009.0
20260507005607 9 20 11.3 25.7 0.00 0.00 0.00 93 1009.0
20260507004607 9 20 11.3 25.7 0.00 0.00 0.00 93 1010.0
20260507003607 9 20 11.3 25.7 0.00 0.00 0.00 93 1010.0
20260507002607 10 4 17.7 32.2 0.00 0.00 0.00 91 1008.0
20260507001607 10 4 17.7 32.2 0.00 0.00 0.00 90 1008.0
20260507000607 10 4 17.7 32.2 0.00 0.00 0.00 90 1008.0
20260506235607 9 4 17.7 32.2 0.00 0.00 0.00 92 1008.0
20260506234607 10 4 17.7 32.2 0.00 0.00 0.00 92 1008.0
20260506233607 10 4 17.7 32.2 0.00 0.00 0.00 92 1008.0
20260506232607 10 3 16.1 27.4 0.00 0.00 0.00 88 1008.0
20260506231607 10 3 16.1 27.4 0.00 0.00 0.00 87 1008.0
20260506230607 10 3 16.1 27.4 0.00 0.00 0.00 89 1008.0
20260506225607 10 3 16.1 27.4 0.00 0.00 0.00 89 1008.0
20260506224607 10 3 16.1 27.4 0.00 0.00 0.00 88 1008.0
20260506223607 10 3 16.1 27.4 0.00 0.00 0.00 88 1008.0
20260506222607 10 6 12.9 20.9 0.00 0.00 0.00 85 1008.0
20260506221607 11 6 12.9 20.9 0.00 0.00 0.00 86 1008.0
20260506220608 10 6 12.9 20.9 0.00 0.00 0.00 88 1008.0
20260506215608 10 6 12.9 20.9 0.00 0.00 0.00 88 1008.0
20260506214608 11 6 12.9 20.9 0.00 0.00 0.00 89 1008.0
20260506213608 11 6 12.9 20.9 0.00 0.00 0.00 89 1008.0
20260506212608 11 17 14.5 24.1 0.00 0.00 0.00 86 1007.0
20260506211608 11 17 14.5 24.1 0.00 0.00 0.00 86 1007.0
20260506210608 11 17 14.5 24.1 0.00 0.00 0.00 86 1007.0
20260506205608 11 17 14.5 24.1 0.00 0.00 0.00 86 1007.0
20260506204608 11 17 14.5 24.1 0.00 0.00 0.00 87 1007.0
20260506203608 11 17 14.5 24.1 0.00 0.00 0.00 87 1007.0
20260506202608 11 9 14.5 25.7 0.00 0.00 0.00 86 1007.0
20260506201608 11 9 14.5 25.7 0.00 0.00 0.00 85 1007.0
20260506200608 11 9 14.5 25.7 0.00 0.00 0.00 85 1007.0
20260506195608 11 9 14.5 25.7 0.00 0.00 0.00 86 1007.0
20260506194608 11 9 14.5 25.7 0.00 0.00 0.00 86 1007.0
20260506193608 11 9 14.5 25.7 0.00 0.00 0.00 86 1007.0
20260506192608 12 2 14.5 24.1 0.00 0.00 0.00 86 1007.0
20260506191608 12 2 14.5 24.1 0.00 0.00 0.00 85 1007.0
20260506190608 12 2 14.5 24.1 0.00 0.00 0.00 85 1007.0
20260506185608 12 2 14.5 24.1 0.00 0.00 0.00 85 1007.0
20260506184608 12 2 14.5 24.1 0.00 0.00 0.00 85 1007.0
20260506183608 13 338 17.7 27.4 0.00 0.00 0.00 83 1006.0
20260506182608 13 338 17.7 27.4 0.00 0.00 0.00 83 1006.0
20260506181608 13 338 17.7 27.4 0.00 0.00 0.00 82 1006.0
20260506180608 13 338 17.7 27.4 0.00 0.00 0.00 83 1006.0
20260506175608 13 338 17.7 27.4 0.00 0.00 0.00 83 1006.0
20260506174607 14 338 17.7 27.4 0.00 0.00 0.00 82 1006.0
20260506173608 14 338 17.7 27.4 0.00 0.00 0.00 82 1006.0
20260506172607 15 323 20.9 25.7 0.00 0.00 0.00 78 1006.0
20260506171607 15 323 20.9 25.7 0.00 0.00 0.00 77 1006.0
20260506170608 15 323 20.9 25.7 0.00 0.00 0.00 77 1006.0
20260506165607 15 323 20.9 25.7 0.00 0.00 0.00 78 1006.0
20260506164607 15 323 20.9 25.7 0.00 0.00 0.00 78 1006.0
20260506163607 16 305 22.5 24.1 0.00 0.00 0.00 75 1006.0
20260506162607 16 305 22.5 24.1 0.00 0.00 0.00 75 1006.0
20260506161607 16 305 22.5 24.1 0.00 0.00 0.00 73 1006.0
20260506160607 16 305 22.5 24.1 0.00 0.00 0.00 73 1006.0
20260506155607 16 305 22.5 24.1 0.00 0.00 0.00 71 1005.0
20260506154607 16 305 22.5 24.1 0.00 0.00 0.00 71 1005.0
20260506153607 17 283 22.5 25.7 0.00 0.00 0.00 70 1005.0
20260506152607 17 283 22.5 25.7 0.00 0.00 0.00 70 1005.0
20260506151607 17 283 22.5 25.7 0.00 0.00 0.00 69 1005.0
20260506150607 17 283 22.5 25.7 0.00 0.00 0.00 69 1005.0
20260506145607 17 283 22.5 25.7 0.00 0.00 0.00 66 1005.0
20260506144607 17 283 22.5 25.7 0.00 0.00 0.00 67 1005.0
20260506143607 17 283 22.5 25.7 0.00 0.00 0.00 68 1005.0
20260506142607 17 270 24.1 30.6 0.00 0.00 0.00 69 1005.0
20260506141607 17 270 24.1 30.6 0.00 0.00 0.00 69 1005.0
20260506140607 17 270 24.1 30.6 0.00 0.00 0.00 66 1004.0
20260506135607 17 270 24.1 30.6 0.00 0.00 0.00 66 1004.0
20260506134607 17 270 24.1 30.6 0.00 0.00 0.00 66 1004.0
20260506133607 17 270 24.1 30.6 0.00 0.00 0.00 66 1004.0
20260506132607 17 264 22.5 32.2 0.00 0.00 0.00 68 1004.0
20260506131607 17 264 22.5 32.2 0.00 0.00 0.00 66 1004.0
20260506130607 17 264 22.5 32.2 0.00 0.00 0.00 66 1004.0
20260506125607 17 264 22.5 32.2 0.00 0.00 0.00 66 1004.0
20260506124607 17 271 24.1 32.2 0.00 0.00 0.00 66 1004.0
20260506123607 16 267 25.7 37.0 0.00 0.00 0.00 68 1004.0
20260506122607 16 267 25.7 37.0 0.00 0.00 0.00 68 1004.0
20260506121607 16 267 25.7 37.0 0.00 0.00 0.00 70 1004.0
20260506120607 16 267 25.7 37.0 0.00 0.00 0.00 68 1004.0
20260506115607 16 267 25.7 37.0 0.00 0.00 0.00 68 1004.0
20260506114607 16 267 25.7 37.0 0.00 0.00 0.00 68 1004.0
20260506113607 16 267 25.7 37.0 0.00 0.00 0.00 68 1004.0
20260506112607 16 256 30.6 37.0 0.00 0.00 0.00 71 1004.0
20260506111607 16 256 30.6 37.0 0.00 0.00 0.00 71 1004.0
20260506110607 16 256 30.6 37.0 0.00 0.00 0.00 71 1004.0
20260506105607 16 256 30.6 37.0 0.00 0.00 0.00 70 1004.0
20260506104607 16 256 30.6 37.0 0.00 0.00 0.00 70 1004.0
20260506103607 16 256 30.6 37.0 0.00 0.00 0.00 70 1004.0
20260506102607 15 236 20.9 29.0 0.00 0.00 0.00 75 1004.0
20260506101607 15 236 20.9 29.0 0.00 0.00 0.00 75 1004.0
20260506100725 15 236 20.9 29.0 0.00 0.00 0.00 77 1003.0
20260506095607 15 236 20.9 29.0 0.00 0.00 0.00 77 1003.0
20260506094607 15 236 20.9 29.0 0.00 0.00 0.00 77 1003.0
20260506093607 15 236 20.9 29.0 0.00 0.00 0.00 77 1003.0
20260506092607 15 201 14.5 29.0 0.00 0.00 0.00 76 1004.0
20260506091607 15 201 14.5 29.0 0.00 0.00 0.00 76 1004.0
20260506090607 15 201 14.5 29.0 0.00 0.00 0.00 76 1004.0
20260506085607 15 201 14.5 29.0 0.00 0.00 0.00 79 1003.0
20260506084607 15 201 14.5 29.0 0.00 0.00 0.00 79 1003.0
20260506083607 15 201 14.5 29.0 0.00 0.00 0.00 79 1003.0
20260506082607 14 154 11.3 17.7 0.00 0.00 0.00 77 1004.0
20260506081607 13 154 11.3 17.7 0.00 0.00 0.00 81 1004.0
20260506080607 13 154 11.3 17.7 0.00 0.00 0.00 81 1004.0
20260506072607 13 105 12.9 14.5 0.00 0.00 0.00 85 1004.0
20260506071607 12 105 12.9 14.5 0.00 0.00 0.00 85 1004.0
20260506070607 12 105 12.9 14.5 0.00 0.00 0.00 85 1004.0
20260506061607 12 78 17.7 30.6 0.00 0.00 0.00 86 1004.0
20260506060607 12 78 17.7 30.6 0.00 0.00 0.00 86 1004.0
20260506050607 11 58 17.7 33.8 0.00 0.00 0.00 87 1004.0
20260506044607 11 58 17.7 33.8 0.00 0.00 0.00 88 1004.0
20260506043607 11 58 17.7 33.8 0.00 0.00 0.00 88 1004.0
20260506042607 11 52 17.7 32.2 0.00 0.00 0.00 90 1005.0
20260506041607 11 52 17.7 32.2 0.00 0.00 0.00 90 1005.0
20260506040607 11 52 17.7 32.2 0.00 0.00 0.00 90 1005.0
20260506035607 11 52 17.7 32.2 0.00 0.00 0.00 89 1004.0
20260506034607 10 52 17.7 32.2 0.00 0.00 0.00 89 1004.0
20260506033607 10 52 17.7 32.2 0.00 0.00 0.00 89 1004.0
20260506032607 10 56 16.1 30.6 0.00 0.00 0.00 90 1005.0
20260506031607 11 56 16.1 30.6 0.00 0.00 0.00 90 1005.0
20260506030607 10 56 16.1 30.6 0.00 0.00 0.00 89 1005.0
20260506025607 10 56 16.1 30.6 0.00 0.00 0.00 89 1005.0
20260506024607 11 56 16.1 30.6 0.00 0.00 0.00 89 1005.0
20260506023607 11 56 16.1 30.6 0.00 0.00 0.00 89 1005.0
20260506022607 11 52 17.7 35.4 0.00 0.00 0.00 90 1005.0